This demonstration page uses our WeatherBlox Daily Observations layout. Learn more.

Left ArrowRight Arrow

36.19886, -115.1175

Hourly Observations for December 10, 2015

Temp ( °F °C ) Dew Point ( °F °C ) Humidity (%) Winds ( mph kmh ) Pressure ( in mb ) Visibility ( mi km ) Precip ( " mm )
12:53 am 00:53 Clear 45 7.2 29 -1.7 54 54 WNW 6 9 30.03 1017 10 16 0.00 0.00
1:53 am 01:53 Clear 46 7.8 28 -2.2 50 50 Calm 30.01 1016 10 16 0.00 0.00
2:53 am 02:53 Clear 43 6.1 28 -2.2 56 56 NW 3 6 30.00 1016 10 16 0.00 0.00
3:53 am 03:53 Clear 41 5 28 -2.2 60 60 NW 6 9 29.98 1015 10 16 0.00 0.00
4:53 am 04:53 Clear 41 5 28 -2.2 60 60 NNW 6 9 29.99 1016 10 16 0.00 0.00
5:53 am 05:53 Clear 42 5.6 28 -2.2 58 58 NNW 3 6 29.98 1015 10 16 0.00 0.00
6:53 am 06:53 Sunny 40 4.4 28 -2.2 63 63 NW 5 7 29.98 1015 10 16 0.00 0.00
7:53 am 07:53 Sunny 43 6.1 29 -1.7 58 58 NNW 3 6 29.98 1015 10 16 0.00 0.00
8:53 am 08:53 Sunny 49 9.4 29 -1.7 46 46 Calm 29.99 1016 10 16 0.00 0.00
9:53 am 09:53 Sunny 52 11.1 29 -1.7 41 41 Calm 30.00 1016 10 16 0.00 0.00
10:53 am 10:53 Sunny 55 12.8 28 -2.2 35 35 E 8 13 29.96 1015 10 16 0.00 0.00
11:53 am 11:53 Sunny 56 13.3 28 -2.2 34 34 Calm 29.91 1013 10 16 0.00 0.00
12:53 pm 12:53 Sunny 57 13.9 27 -2.8 32 32 ESE 5 7 29.85 1011 10 16 0.00 0.00
1:53 pm 13:53 Sunny 60 15.6 28 -2.2 30 30 NE 6 9 29.79 1009 10 16 0.00 0.00
2:53 pm 14:53 Sunny 61 16.1 28 -2.2 29 29 VRB 3 6 29.77 1008 10 16 0.00 0.00
3:53 pm 15:53 Sunny 62 16.7 28 -2.2 28 28 VRB 7 11 29.74 1007 10 16 0.00 0.00
4:53 pm 16:53 Clear 68 20 23 -5 18 18 SSW 9 15 29.70 1006 10 16 0.00 0.00
5:53 pm 17:53 Clear 66 18.9 25 -3.9 21 21 SSE 12 19 29.71 1006 10 16 0.00 0.00
6:53 pm 18:53 Clear 68 20 26 -3.3 21 21 S 8 13 29.70 1006 10 16 0.00 0.00
7:53 pm 19:53 Clear 64 17.8 29 -1.7 27 27 SSE 13 20 29.70 1006 10 16 0.00 0.00
8:53 pm 20:53 Clear 64 17.8 32 0 30 30 SSW 13 20 29.67 1005 10 16 0.00 0.00
9:53 pm 21:53 Clear 63 17.2 35 1.7 35 35 SSW 20 31 29.65 1004 10 16 0.00 0.00
10:53 pm 22:53 Clear 63 17.2 37 2.8 38 38 SSW 17 28 29.66 1004 10 16 0.00 0.00
11:53 pm 23:53 Mostly Clear 60 15.6 41 5 50 50 SSE 17 28 29.67 1005 10 16 0.00 0.00

Powered by AerisWeather